Location: Les Coudrans
(46.1056°N, 1.1158°W)
Time: 16:46:29
(UTC+00:00)

Resurs 01 Rocket - Pass Details

Date: 03 March 2021
Orbit: 635 x 643 km, 98.0° (Epoch: 14 April)

Event Time Altitude Azimuth Distance (km) Brightness Sun altitude
Exits shadow 20:50:15 29° 338° (NNW) 1,171 3.3 -30.7°
Drops below altitude 10° 20:52:28 10° 344° (NNW) 2,034 4.7 -31.0°
Sets 20:54:41 0° 346° (NNW) 2,948 5.6 -31.4°
